,,,PA_Meas_PMT16A,,PR_Meas_QMR101_102,,RH_Meas_QMH101,,SR_Meas_QMS101,,TA_Meas_QMH101,,GenWind,,GenWind,
date,time,status,PA,status,PR,status,RH,status,SR,status,TA,status,DirAvg,status,SpdAvg,
2012-08-12, 00:00:04,VALID,1003.32,VALID,0,VALID,92.5702,VALID,0,VALID,24.1677,VALID,131,VALID,0.744531,
2012-08-12, 00:01:04,VALID,1003.3,VALID,0,VALID,92.8143,VALID,0,VALID,24.1891,VALID,131,VALID,0.705859,
2012-08-12, 00:02:04,VALID,1003.32,VALID,0,VALID,92.9822,VALID,0,VALID,24.1891,VALID,131,VALID,0.696484,
2012-08-12, 00:03:04,VALID,1003.3,VALID,0,VALID,93.0737,VALID,0,VALID,24.1891,VALID,131,VALID,0.528516,
2012-08-12, 00:04:04,VALID,1003.3,VALID,0,VALID,93.1653,VALID,0,VALID,24.1677,VALID,131,VALID,0.538672,
2012-08-12, 00:05:04,VALID,1003.25,VALID,0,VALID,93.2797,VALID,0,VALID,24.1696,VALID,131,VALID,0.463672,
2012-08-12, 00:06:04,VALID,1003.24,VALID,0,VALID,93.3026,VALID,0,VALID,24.15,VALID,131,VALID,0.467578,
2012-08-12, 00:07:04,VALID,1003.22,VALID,0,VALID,93.3408,VALID,0,VALID,24.15,VALID,131,VALID,0.448438,
2012-08-12, 00:08:04,VALID,1003.15,VALID,0,VALID,93.2874,VALID,0,VALID,24.1092,VALID,131,VALID,0.533984,
2012-08-12, 00:09:04,VALID,1003.14,VALID,0,VALID,93.295,VALID,0,VALID,24.0897,VALID,131,VALID,0.380078,
2012-08-12, 00:10:04,VALID,1003.11,VALID,0,VALID,93.3408,VALID,0,VALID,24.0915,VALID,131,VALID,0.428906,
2012-08-12, 00:11:04,VALID,1003.08,VALID,0,VALID,93.3789,VALID,0,VALID,24.0701,VALID,131,VALID,0.423047,
2012-08-12, 00:12:04,VALID,1003.03,VALID,0,VALID,93.4323,VALID,0,VALID,24.0701,VALID,131,VALID,0.346484,
2012-08-12, 00:13:04,VALID,1003.01,VALID,0,VALID,93.3942,VALID,0,VALID,24.0506,VALID,131,VALID,0.253125,
2012-08-12, 00:14:04,VALID,1002.95,VALID,0,VALID,93.3637,VALID,0,VALID,24.0311,VALID,131,VALID,0.172656,
2012-08-12, 00:15:04,VALID,1002.94,VALID,0,VALID,93.3637,VALID,0,VALID,24.0311,VALID,131,VALID,0,
2012-08-12, 00:16:04,VALID,1002.94,VALID,0,VALID,93.3179,VALID,0,VALID,24.0525,VALID,131,VALID,0,
2012-08-12, 00:17:04,VALID,1002.91,VALID,0,VALID,93.295,VALID,0,VALID,24.0116,VALID,131,VALID,0,
2012-08-12, 00:18:04,VALID,1002.91,VALID,0,VALID,93.2645,VALID,0,VALID,24.0329,VALID,131,VALID,0,
2012-08-12, 00:19:04,VALID,1002.88,VALID,0,VALID,93.2568,VALID,0,VALID,24.0311,VALID,131,VALID,0,
2012-08-12, 00:20:04,VALID,1002.9,VALID,0,VALID,93.3103,VALID,0,VALID,24.0329,VALID,131,VALID,0,
2012-08-12, 00:21:04,VALID,1002.89,VALID,0,VALID,93.3331,VALID,0,VALID,24.0116,VALID,131,VALID,0,
2012-08-12, 00:22:04,VALID,1002.88,VALID,0,VALID,93.295,VALID,0,VALID,24.0525,VALID,131,VALID,0.61875,
2012-08-12, 00:23:04,VALID,1002.86,VALID,0,VALID,93.3637,VALID,0,VALID,24.0525,VALID,131,VALID,0.675,
2012-08-12, 00:24:04,VALID,1002.86,VALID,0,VALID,93.4171,VALID,0,VALID,24.072,VALID,131,VALID,0.678125,
2012-08-12, 00:25:04,VALID,1002.84,VALID,0,VALID,93.4934,VALID,0,VALID,24.0897,VALID,131,VALID,0.561719,
2012-08-12, 00:26:04,VALID,1002.82,VALID,0,VALID,93.6002,VALID,0,VALID,24.1305,VALID,131,VALID,0.529297,
2012-08-12, 00:27:04,VALID,1002.81,VALID,0,VALID,93.562,VALID,0,VALID,24.1287,VALID,131,VALID,0.431641,
2012-08-12, 00:28:04,VALID,1002.77,VALID,0,VALID,93.501,VALID,0,VALID,24.1287,VALID,131,VALID,0.256641,
2012-08-12, 00:29:04,VALID,1002.76,VALID,0,VALID,93.4094,VALID,0,VALID,24.1287,VALID,131,VALID,0.216406,
2012-08-12, 00:30:04,VALID,1002.72,VALID,0,VALID,93.3484,VALID,0,VALID,24.1092,VALID,131,VALID,0.378906,
2012-08-12, 00:31:04,VALID,1002.74,VALID,0,VALID,93.2874,VALID,0,VALID,24.1092,VALID,131,VALID,0.422266,
2012-08-12, 00:32:04,VALID,1002.71,VALID,0,VALID,93.2645,VALID,0,VALID,24.0897,VALID,131,VALID,0.336328,
2012-08-12, 00:33:04,VALID,1002.7,VALID,0,VALID,93.2034,VALID,0,VALID,24.111,VALID,131,VALID,0.547656,
2012-08-12, 00:34:04,VALID,1002.67,VALID,0,VALID,93.2034,VALID,0,VALID,24.1305,VALID,131,VALID,0.642578,
2012-08-12, 00:35:04,VALID,1002.64,VALID,0,VALID,93.1958,VALID,0,VALID,24.15,VALID,131,VALID,0.487109,
2012-08-12, 00:36:04,VALID,1002.6,VALID,0,VALID,93.1729,VALID,0,VALID,24.1287,VALID,131,VALID,0.389844,
2012-08-12, 00:37:04,VALID,1002.58,VALID,0,VALID,93.1119,VALID,0,VALID,24.15,VALID,131,VALID,0.552344,
2012-08-12, 00:38:04,VALID,1002.55,VALID,0,VALID,93.1119,VALID,0,VALID,24.15,VALID,131,VALID,0.533594,
2012-08-12, 00:39:04,VALID,1002.51,VALID,0,VALID,93.15,VALID,0,VALID,24.1092,VALID,131,VALID,0.414453,
2012-08-12, 00:40:04,VALID,1002.53,VALID,0,VALID,93.234,VALID,0,VALID,24.0897,VALID,131,VALID,0.398828,
2012-08-12, 00:41:04,VALID,1002.49,VALID,0,VALID,93.2645,VALID,0,VALID,24.0915,VALID,131,VALID,0.430859,
2012-08-12, 00:42:04,VALID,1002.46,VALID,0,VALID,93.2797,VALID,0,VALID,24.0701,VALID,131,VALID,0.436719,
2012-08-12, 00:43:04,VALID,1002.46,VALID,0,VALID,93.3103,VALID,0,VALID,24.072,VALID,131,VALID,0.5875,
2012-08-12, 00:44:04,VALID,1002.42,VALID,0,VALID,93.3789,VALID,0,VALID,24.0525,VALID,131,VALID,0.485156,
2012-08-12, 00:45:04,VALID,1002.43,VALID,0,VALID,93.44,VALID,0,VALID,24.0311,VALID,131,VALID,0.4125,
2012-08-12, 00:46:04,VALID,1002.39,VALID,0,VALID,93.4705,VALID,0,VALID,24.0525,VALID,131,VALID,0.380469,
2012-08-12, 00:47:04,VALID,1002.38,VALID,0,VALID,93.501,VALID,0,VALID,24.0525,VALID,131,VALID,0.449609,
2012-08-12, 00:48:04,VALID,1002.35,VALID,0,VALID,93.5315,VALID,0,VALID,24.0525,VALID,131,VALID,0.504687,
2012-08-12, 00:49:04,VALID,1002.32,VALID,0,VALID,93.5468,VALID,0,VALID,24.0329,VALID,131,VALID,0.56875,
2012-08-12, 00:50:04,VALID,1002.31,VALID,0,VALID,93.5849,VALID,0,VALID,24.0329,VALID,131,VALID,0.546094,
2012-08-12, 00:51:04,VALID,1002.28,VALID,0,VALID,93.6231,VALID,0,VALID,24.0329,VALID,131,VALID,0.429297,
2012-08-12, 00:52:04,VALID,1002.24,VALID,0,VALID,93.6383,VALID,0,VALID,24.0116,VALID,131,VALID,0.370313,
2012-08-12, 00:53:04,VALID,1002.25,VALID,0,VALID,93.6612,VALID,0,VALID,24.0329,VALID,131,VALID,0.216797,
2012-08-12, 00:54:04,VALID,1002.23,VALID,0,VALID,93.6231,VALID,0,VALID,24.0116,VALID,131,VALID,0.574609,
2012-08-12, 00:55:04,VALID,1002.2,VALID,0,VALID,93.4781,VALID,0,VALID,24.0506,VALID,131,VALID,1.04219,
2012-08-12, 00:56:04,VALID,1002.21,VALID,0,VALID,93.0356,VALID,0,VALID,24.111,VALID,131,VALID,0.841016,
2012-08-12, 00:57:04,VALID,1002.15,VALID,0,VALID,92.4252,VALID,0,VALID,24.2086,VALID,131,VALID,0.857813,
2012-08-12, 00:58:04,VALID,1002.12,VALID,0,VALID,91.6546,VALID,0,VALID,24.2653,VALID,131,VALID,1.25352,
2012-08-12, 00:59:04,VALID,1002.12,VALID,0,VALID,91.0061,VALID,0,VALID,24.3433,VALID,131,VALID,0.735156,
2012-08-12, 01:00:04,VALID,1002.08,VALID,0,VALID,90.4034,VALID,0,VALID,24.4214,VALID,131,VALID,0.719531,
2012-08-12, 01:01:04,VALID,1002.05,VALID,0,VALID,89.7243,VALID,0,VALID,24.48,VALID,131,VALID,0.976172,
2012-08-12, 01:02:04,VALID,1002.03,VALID,0,VALID,89.03,VALID,0,VALID,24.5404,VALID,131,VALID,0.880859,
2012-08-12, 01:03:04,VALID,1001.98,VALID,0,VALID,88.3892,VALID,0,VALID,24.5971,VALID,140,VALID,1.41953,
2012-08-12, 01:04:04,VALID,1001.95,VALID,0,VALID,87.9695,VALID,0,VALID,24.6575,VALID,142,VALID,1.1332,
2012-08-12, 01:05:04,VALID,1001.95,VALID,0,VALID,87.7025,VALID,0,VALID,24.716,VALID,141,VALID,0.895312,
2012-08-12, 01:06:04,VALID,1001.94,VALID,0,VALID,87.5041,VALID,0,VALID,24.7337,VALID,141,VALID,1.05781,
2012-08-12, 01:07:04,VALID,1001.94,VALID,0,VALID,87.4354,VALID,0,VALID,24.7746,VALID,139,VALID,1.00781,
2012-08-12, 01:08:04,VALID,1001.92,VALID,0,VALID,87.3897,VALID,0,VALID,24.7746,VALID,139,VALID,1.15078,
2012-08-12, 01:09:04,VALID,1001.92,VALID,0,VALID,87.3973,VALID,0,VALID,24.7727,VALID,129,VALID,1.14688,
2012-08-12, 01:10:04,VALID,1001.95,VALID,0,VALID,87.2676,VALID,0,VALID,24.7941,VALID,129,VALID,1.40156,
2012-08-12, 01:11:04,VALID,1001.93,VALID,0,VALID,87.1608,VALID,0,VALID,24.7727,VALID,129,VALID,1.14883,
2012-08-12, 01:12:04,VALID,1001.91,VALID,0,VALID,87.1913,VALID,0,VALID,24.7941,VALID,129,VALID,0.989453,
2012-08-12, 01:13:04,VALID,1001.93,VALID,0,VALID,87.321,VALID,0,VALID,24.7941,VALID,129,VALID,0.644531,
2012-08-12, 01:14:04,VALID,1001.94,VALID,0,VALID,87.1532,VALID,0,VALID,24.7532,VALID,129,VALID,0.619922,
2012-08-12, 01:15:04,VALID,1001.94,VALID,0,VALID,87.2142,VALID,0,VALID,24.7551,VALID,129,VALID,0.182031,
2012-08-12, 01:16:04,VALID,1001.94,VALID,0,VALID,87.1684,VALID,0,VALID,24.7746,VALID,129,VALID,0.208203,
2012-08-12, 01:17:04,VALID,1001.92,VALID,0,VALID,87.1989,VALID,0,VALID,24.7337,VALID,129,VALID,0.337891,
2012-08-12, 01:18:04,VALID,1001.95,VALID,0,VALID,87.382,VALID,0,VALID,24.7337,VALID,129,VALID,0.518359,
2012-08-12, 01:19:04,VALID,1001.94,VALID,0,VALID,88.0229,VALID,0,VALID,24.7337,VALID,129,VALID,0.792969,
2012-08-12, 01:20:04,VALID,1001.95,VALID,0,VALID,88.6409,VALID,0,VALID,24.7142,VALID,129,VALID,0.683594,
2012-08-12, 01:21:04,VALID,1001.95,VALID,0,VALID,88.8469,VALID,0,VALID,24.6556,VALID,129,VALID,0.539453,
2012-08-12, 01:22:04,VALID,1001.93,VALID,0,VALID,89.2055,VALID,0,VALID,24.638,VALID,129,VALID,0.496875,
2012-08-12, 01:23:04,VALID,1001.95,VALID,0,VALID,89.32,VALID,0,VALID,24.5794,VALID,129,VALID,0.555859,
2012-08-12, 01:24:04,VALID,1001.93,VALID,0,VALID,89.2818,VALID,0,VALID,24.5404,VALID,129,VALID,0.576563,
2012-08-12, 01:25:04,VALID,1001.94,VALID,0,VALID,89.3505,VALID,0,VALID,24.5013,VALID,129,VALID,0.325391,
2012-08-12, 01:26:04,VALID,1001.97,VALID,0,VALID,89.2055,VALID,0,VALID,24.48,VALID,129,VALID,0.41875,
2012-08-12, 01:27:04,VALID,1001.94,VALID,0,VALID,89.236,VALID,0,VALID,24.5013,VALID,129,VALID,0.401563,
2012-08-12, 01:28:04,VALID,1001.93,VALID,0,VALID,89.3047,VALID,0,VALID,24.5013,VALID,129,VALID,0.467187,
2012-08-12, 01:29:04,VALID,1001.94,VALID,0,VALID,89.1368,VALID,0,VALID,24.5013,VALID,129,VALID,0.40625,
2012-08-12, 01:30:04,VALID,1001.89,VALID,0,VALID,88.7172,VALID,0,VALID,24.48,VALID,129,VALID,0.470703,
2012-08-12, 01:31:04,VALID,1001.86,VALID,0,VALID,88.4273,VALID,0,VALID,24.5209,VALID,129,VALID,0.371484,
2012-08-12, 01:32:04,VALID,1001.86,VALID,0,VALID,88.3968,VALID,0,VALID,24.5404,VALID,129,VALID,0.455469,
2012-08-12, 01:33:04,VALID,1001.84,VALID,0,VALID,88.4883,VALID,0,VALID,24.558,VALID,129,VALID,0.549219,
2012-08-12, 01:34:04,VALID,1001.84,VALID,0,VALID,88.5036,VALID,0,VALID,24.558,VALID,129,VALID,0.317578,
2012-08-12, 01:35:04,VALID,1001.81,VALID,0,VALID,88.5646,VALID,0,VALID,24.5794,VALID,129,VALID,0.275781,
2012-08-12, 01:36:04,VALID,1001.79,VALID,0,VALID,88.6638,VALID,0,VALID,24.5794,VALID,129,VALID,0.588281,
2012-08-12, 01:37:04,VALID,1001.76,VALID,0,VALID,88.8317,VALID,0,VALID,24.5794,VALID,129,VALID,0.696094,
2012-08-12, 01:38:04,VALID,1001.75,VALID,0,VALID,88.8851,VALID,0,VALID,24.5794,VALID,277,VALID,0.734375,
2012-08-12, 01:39:04,VALID,1001.75,VALID,0,VALID,88.8698,VALID,0,VALID,24.5599,VALID,277,VALID,0.709375,
2012-08-12, 01:40:04,VALID,1001.75,VALID,0,VALID,89.03,VALID,0,VALID,24.5599,VALID,277,VALID,0.674219,
2012-08-12, 01:41:04,VALID,1001.73,VALID,0,VALID,88.9766,VALID,0,VALID,24.5404,VALID,277,VALID,0.8625,
2012-08-12, 01:42:04,VALID,1001.72,VALID,0,VALID,89.1826,VALID,0,VALID,24.5404,VALID,277,VALID,0.901563,
2012-08-12, 01:43:04,VALID,1001.74,VALID,0,VALID,89.2818,VALID,0,VALID,24.5209,VALID,277,VALID,0.876953,
2012-08-12, 01:44:04,VALID,1001.76,VALID,0,VALID,89.4726,VALID,0,VALID,24.48,VALID,277,VALID,0.939844,
2012-08-12, 01:45:04,VALID,1001.74,VALID,0,VALID,89.6099,VALID,0,VALID,24.4818,VALID,282,VALID,0.765625,
2012-08-12, 01:46:04,VALID,1001.74,VALID,0,VALID,89.7472,VALID,0,VALID,24.4818,VALID,284,VALID,0.602344,
2012-08-12, 01:47:04,VALID,1001.76,VALID,0,VALID,89.8769,VALID,0,VALID,24.4623,VALID,284,VALID,0.376953,
2012-08-12, 01:48:04,VALID,1001.77,VALID,0,VALID,90.06,VALID,0,VALID,24.4428,VALID,284,VALID,0.532422,
2012-08-12, 01:49:04,VALID,1001.75,VALID,0,VALID,90.0982,VALID,0,VALID,24.4233,VALID,269,VALID,0.520703,
2012-08-12, 01:50:04,VALID,1001.73,VALID,0,VALID,90.1668,VALID,0,VALID,24.4428,VALID,269,VALID,0.4,
2012-08-12, 01:51:04,VALID,1001.71,VALID,0,VALID,90.1745,VALID,0,VALID,24.4214,VALID,269,VALID,0.794531,
2012-08-12, 01:52:04,VALID,1001.71,VALID,0,VALID,90.1363,VALID,0,VALID,24.4428,VALID,269,VALID,0.848828,
2012-08-12, 01:53:04,VALID,1001.71,VALID,0,VALID,90.1974,VALID,0,VALID,24.4623,VALID,269,VALID,0.778516,
2012-08-12, 01:54:04,VALID,1001.69,VALID,0,VALID,90.2737,VALID,0,VALID,24.4818,VALID,270,VALID,0.858984,
2012-08-12, 01:55:04,VALID,1001.67,VALID,0,VALID,90.266,VALID,0,VALID,24.4214,VALID,272,VALID,0.874609,
2012-08-12, 01:56:04,VALID,1001.68,VALID,0,VALID,90.3728,VALID,0,VALID,24.4428,VALID,272,VALID,0.647266,
2012-08-12, 01:57:04,VALID,1001.68,VALID,0,VALID,90.5102,VALID,0,VALID,24.4214,VALID,272,VALID,0.370313,
2012-08-12, 01:58:04,VALID,1001.69,VALID,0,VALID,90.5407,VALID,0,VALID,24.4233,VALID,272,VALID,0.458984,
2012-08-12, 01:59:04,VALID,1001.7,VALID,0,VALID,90.6094,VALID,0,VALID,24.4037,VALID,272,VALID,0.339453,
2012-08-12, 02:00:04,VALID,1001.69,VALID,0,VALID,90.6857,VALID,0,VALID,24.3824,VALID,272,VALID,0.505469,
2012-08-12, 02:01:04,VALID,1001.72,VALID,0,VALID,90.7314,VALID,0,VALID,24.3824,VALID,272,VALID,0.648828,
2012-08-12, 02:02:04,VALID,1001.75,VALID,0,VALID,90.6551,VALID,0,VALID,24.3824,VALID,272,VALID,0.715234,
2012-08-12, 02:03:04,VALID,1001.72,VALID,0,VALID,90.6704,VALID,0,VALID,24.4233,VALID,283,VALID,1.01289,
2012-08-12, 02:04:04,VALID,1001.76,VALID,0,VALID,90.5865,VALID,0,VALID,24.4233,VALID,286,VALID,0.667969,
2012-08-12, 02:05:04,VALID,1001.75,VALID,0,VALID,90.4339,VALID,0,VALID,24.3824,VALID,286,VALID,1.09453,
2012-08-12, 02:06:04,VALID,1001.75,VALID,0,VALID,90.6094,VALID,0,VALID,24.4233,VALID,286,VALID,0.817187,
2012-08-12, 02:07:04,VALID,1001.73,VALID,0,VALID,90.5788,VALID,0,VALID,24.4037,VALID,286,VALID,0.677344,
2012-08-12, 02:08:04,VALID,1001.75,VALID,0,VALID,90.617,VALID,0,VALID,24.3842,VALID,286,VALID,0.785156,
2012-08-12, 02:09:04,VALID,1001.7,VALID,0,VALID,90.8154,VALID,0,VALID,24.3824,VALID,286,VALID,0.660156,
2012-08-12, 02:10:04,VALID,1001.72,VALID,0,VALID,90.9527,VALID,0,VALID,24.3824,VALID,286,VALID,0.633984,
2012-08-12, 02:11:04,VALID,1001.67,VALID,0,VALID,90.5788,VALID,0,VALID,24.3433,VALID,286,VALID,0.722266,
2012-08-12, 02:12:04,VALID,1001.68,VALID,0,VALID,90.3347,VALID,0,VALID,24.3452,VALID,286,VALID,0.51875,
2012-08-12, 02:13:04,VALID,1001.69,VALID,0,VALID,90.2431,VALID,0,VALID,24.3452,VALID,286,VALID,0.266797,
2012-08-12, 02:14:04,VALID,1001.69,VALID,0,VALID,90.4949,VALID,0,VALID,24.3452,VALID,286,VALID,0.460547,
2012-08-12, 02:15:04,VALID,1001.72,VALID,0,VALID,90.6857,VALID,0,VALID,24.3452,VALID,286,VALID,0.674219,
2012-08-12, 02:16:04,VALID,1001.69,VALID,0,VALID,90.8001,VALID,0,VALID,24.3043,VALID,286,VALID,0.646875,
2012-08-12, 02:17:04,VALID,1001.69,VALID,0,VALID,90.8917,VALID,0,VALID,24.2848,VALID,41,VALID,0.765234,
2012-08-12, 02:18:04,VALID,1001.69,VALID,0,VALID,90.9298,VALID,0.104696,VALID,24.2866,VALID,41,VALID,0.869141,
2012-08-12, 02:19:04,VALID,1001.68,VALID,0,VALID,91.0366,VALID,0,VALID,24.2866,VALID,41,VALID,0.814844,
2012-08-12, 02:20:04,VALID,1001.67,VALID,0,VALID,91.1816,VALID,0,VALID,24.2458,VALID,49,VALID,0.877734,
2012-08-12, 02:21:04,VALID,1001.67,VALID,0,VALID,91.3113,VALID,0,VALID,24.2476,VALID,49,VALID,0.810547,
2012-08-12, 02:22:04,VALID,1001.65,VALID,0,VALID,91.502,VALID,0,VALID,24.2281,VALID,49,VALID,0.566016,
2012-08-12, 02:23:04,VALID,1001.67,VALID,0,VALID,91.6394,VALID,0,VALID,24.2086,VALID,49,VALID,0.446484,
2012-08-12, 02:24:04,VALID,1001.61,VALID,0,VALID,91.7309,VALID,0,VALID,24.2086,VALID,49,VALID,0.349219,
2012-08-12, 02:25:04,VALID,1001.63,VALID,0,VALID,91.8759,VALID,0,VALID,24.1677,VALID,49,VALID,0.353125,
2012-08-12, 02:26:04,VALID,1001.62,VALID,0,VALID,92.059,VALID,0,VALID,24.1677,VALID,49,VALID,0.408594,
2012-08-12, 02:27:04,VALID,1001.61,VALID,0,VALID,91.9827,VALID,0,VALID,24.1482,VALID,36,VALID,0.586719,
2012-08-12, 02:28:04,VALID,1001.61,VALID,0,VALID,91.9827,VALID,0,VALID,24.1287,VALID,36,VALID,0.346484,
2012-08-12, 02:29:04,VALID,1001.55,VALID,0,VALID,92.0971,VALID,0,VALID,24.1305,VALID,36,VALID,0.0984375,
2012-08-12, 02:30:04,VALID,1001.51,VALID,0,VALID,92.1429,VALID,0,VALID,24.111,VALID,36,VALID,0.164453,
2012-08-12, 02:31:04,VALID,1001.48,VALID,0,VALID,92.1658,VALID,0,VALID,24.0915,VALID,36,VALID,0.158984,
2012-08-12, 02:32:04,VALID,1001.46,VALID,0,VALID,92.2268,VALID,0,VALID,24.0915,VALID,36,VALID,0,
2012-08-12, 02:33:04,VALID,1001.43,VALID,0,VALID,92.2726,VALID,0,VALID,24.0915,VALID,36,VALID,0.251172,
2012-08-12, 02:34:04,VALID,1001.4,VALID,0,VALID,92.3337,VALID,0,VALID,24.0915,VALID,36,VALID,0,
2012-08-12, 02:35:04,VALID,1001.41,VALID,0,VALID,92.3718,VALID,0,VALID,24.072,VALID,36,VALID,0,
2012-08-12, 02:36:04,VALID,1001.41,VALID,0,VALID,92.471,VALID,0,VALID,24.072,VALID,36,VALID,0.362109,
2012-08-12, 02:37:04,VALID,1001.39,VALID,0,VALID,92.5168,VALID,0,VALID,24.0525,VALID,36,VALID,0.520312,
2012-08-12, 02:38:04,VALID,1001.39,VALID,0,VALID,92.5015,VALID,0,VALID,24.0311,VALID,36,VALID,0.634375,
2012-08-12, 02:39:04,VALID,1001.39,VALID,0,VALID,92.5015,VALID,0,VALID,23.9921,VALID,36,VALID,0.589453,
2012-08-12, 02:40:04,VALID,1001.36,VALID,0,VALID,92.5549,VALID,0,VALID,23.9531,VALID,24,VALID,0.8125,
2012-08-12, 02:41:04,VALID,1001.36,VALID,0,VALID,92.6694,VALID,0,VALID,23.9549,VALID,24,VALID,0.760156,
2012-08-12, 02:42:04,VALID,1001.35,VALID,0,VALID,92.7838,VALID,0,VALID,23.9354,VALID,24,VALID,0.548047,
2012-08-12, 02:43:04,VALID,1001.3,VALID,0,VALID,92.8983,VALID,0,VALID,23.8963,VALID,24,VALID,0.408984,
2012-08-12, 02:44:04,VALID,1001.31,VALID,0,VALID,92.9822,VALID,0,VALID,23.8555,VALID,24,VALID,0.319141,
2012-08-12, 02:45:04,VALID,1001.33,VALID,0,VALID,92.9974,VALID,0,VALID,23.836,VALID,24,VALID,0.358203,
2012-08-12, 02:46:04,VALID,1001.34,VALID,0,VALID,93.0127,VALID,0,VALID,23.836,VALID,24,VALID,0.278906,
2012-08-12, 02:47:04,VALID,1001.35,VALID,0,VALID,93.0432,VALID,0,VALID,23.8378,VALID,24,VALID,0.191406,
2012-08-12, 02:48:04,VALID,1001.38,VALID,0,VALID,93.0737,VALID,0,VALID,23.8183,VALID,24,VALID,0.167578,
2012-08-12, 02:49:04,VALID,1001.4,VALID,0,VALID,93.1119,VALID,0,VALID,23.7793,VALID,24,VALID,0.153906,
2012-08-12, 02:50:04,VALID,1001.42,VALID,0,VALID,93.1653,VALID,0,VALID,23.7988,VALID,24,VALID,0.129297,
2012-08-12, 02:51:04,VALID,1001.44,VALID,0,VALID,93.2034,VALID,0,VALID,23.7793,VALID,24,VALID,0,
2012-08-12, 02:52:04,VALID,1001.41,VALID,0,VALID,93.2034,VALID,0,VALID,23.7597,VALID,24,VALID,0,
2012-08-12, 02:53:04,VALID,1001.41,VALID,0,VALID,93.1805,VALID,0,VALID,23.7207,VALID,24,VALID,0.117578,
2012-08-12, 02:54:04,VALID,1001.4,VALID,0,VALID,93.0966,VALID,0,VALID,23.7012,VALID,26,VALID,0.697266,
2012-08-12, 02:55:04,VALID,1001.4,VALID,0,VALID,93.2797,VALID,0,VALID,23.7012,VALID,65,VALID,0.48125,
2012-08-12, 02:56:04,VALID,1001.35,VALID,0,VALID,93.4705,VALID,0,VALID,23.7012,VALID,65,VALID,0.233984,
2012-08-12, 02:57:04,VALID,1001.35,VALID,0,VALID,93.5239,VALID,0,VALID,23.7207,VALID,65,VALID,0.170312,
2012-08-12, 02:58:04,VALID,1001.34,VALID,0,VALID,93.4628,VALID,0,VALID,23.7012,VALID,65,VALID,0.00898437,
2012-08-12, 02:59:04,VALID,1001.38,VALID,0,VALID,93.3713,VALID,0,VALID,23.6817,VALID,65,VALID,0.0234375,
2012-08-12, 03:00:04,VALID,1001.38,VALID,0,VALID,93.4171,VALID,0,VALID,23.6622,VALID,65,VALID,0,
2012-08-12, 03:01:04,VALID,1001.38,VALID,0,VALID,93.4857,VALID,0,VALID,23.6427,VALID,65,VALID,0,
2012-08-12, 03:02:04,VALID,1001.35,VALID,0,VALID,93.5468,VALID,0,VALID,23.6232,VALID,65,VALID,0.482812,
2012-08-12, 03:03:04,VALID,1001.35,VALID,0,VALID,93.6536,VALID,0,VALID,23.6019,VALID,65,VALID,0.522656,
2012-08-12, 03:04:04,VALID,1001.37,VALID,0,VALID,93.6994,VALID,0,VALID,23.6019,VALID,65,VALID,0.378516,
2012-08-12, 03:05:04,VALID,1001.34,VALID,0,VALID,93.6917,VALID,0,VALID,23.5841,VALID,65,VALID,0.4,
2012-08-12, 03:06:04,VALID,1001.35,VALID,0,VALID,93.8291,VALID,0,VALID,23.5841,VALID,65,VALID,0.385547,
2012-08-12, 03:07:04,VALID,1001.35,VALID,0,VALID,93.8977,VALID,0,VALID,23.5841,VALID,65,VALID,0.392578,
2012-08-12, 03:08:04,VALID,1001.35,VALID,0,VALID,93.8062,VALID,0,VALID,23.5433,VALID,65,VALID,0.208984,
2012-08-12, 03:09:04,VALID,1001.34,VALID,0,VALID,93.7757,VALID,0,VALID,23.5043,VALID,65,VALID,0.107031,
2012-08-12, 03:10:04,VALID,1001.33,VALID,0,VALID,93.7757,VALID,0,VALID,23.5061,VALID,65,VALID,0.0597656,
2012-08-12, 03:11:04,VALID,1001.34,VALID,0,VALID,93.7757,VALID,0,VALID,23.4671,VALID,65,VALID,0,
2012-08-12, 03:12:04,VALID,1001.35,VALID,0,VALID,93.7528,VALID,0,VALID,23.4067,VALID,65,VALID,0,
2012-08-12, 03:13:04,VALID,1001.33,VALID,0,VALID,93.7375,VALID,0,VALID,23.4085,VALID,65,VALID,0,
2012-08-12, 03:14:04,VALID,1001.31,VALID,0,VALID,93.8062,VALID,0,VALID,23.4085,VALID,65,VALID,0,
2012-08-12, 03:15:04,VALID,1001.35,VALID,0,VALID,93.8596,VALID,0,VALID,23.3695,VALID,65,VALID,0,
2012-08-12, 03:16:04,VALID,1001.35,VALID,0,VALID,93.8748,VALID,0,VALID,23.3305,VALID,65,VALID,0,
2012-08-12, 03:17:04,VALID,1001.35,VALID,0,VALID,94.0274,VALID,0,VALID,23.3695,VALID,65,VALID,0,
2012-08-12, 03:18:04,VALID,1001.36,VALID,0,VALID,94.18,VALID,0,VALID,23.389,VALID,65,VALID,0.112109,
2012-08-12, 03:19:04,VALID,1001.37,VALID,0,VALID,94.2182,VALID,0,VALID,23.389,VALID,65,VALID,0,
2012-08-12, 03:20:04,VALID,1001.36,VALID,0,VALID,94.2945,VALID,0,VALID,23.389,VALID,65,VALID,0,
2012-08-12, 03:21:04,VALID,1001.39,VALID,0,VALID,94.3479,VALID,0,VALID,23.389,VALID,65,VALID,0.350391,
2012-08-12, 03:22:04,VALID,1001.39,VALID,0,VALID,94.386,VALID,0,VALID,23.3872,VALID,65,VALID,0.138281,
2012-08-12, 03:23:04,VALID,1001.38,VALID,0,VALID,94.4471,VALID,0,VALID,23.4085,VALID,65,VALID,0.297656,
2012-08-12, 03:24:04,VALID,1001.41,VALID,0,VALID,94.5005,VALID,0,VALID,23.428,VALID,65,VALID,0.302734,
2012-08-12, 03:25:04,VALID,1001.4,VALID,0,VALID,94.5081,VALID,0,VALID,23.4085,VALID,65,VALID,0.260156,
2012-08-12, 03:26:04,VALID,1001.41,VALID,0,VALID,94.5005,VALID,0.104696,VALID,23.4263,VALID,157,VALID,0.469922,
2012-08-12, 03:27:04,VALID,1001.39,VALID,0,VALID,94.4852,VALID,0,VALID,23.4866,VALID,160,VALID,1.4082,
2012-08-12, 03:28:04,VALID,1001.4,VALID,0,VALID,94.4623,VALID,0,VALID,23.5823,VALID,162,VALID,1.6625,
2012-08-12, 03:29:04,VALID,1001.36,VALID,0,VALID,94.1724,VALID,0,VALID,23.7207,VALID,166,VALID,1.69805,
2012-08-12, 03:30:04,VALID,1001.38,VALID,0,VALID,93.5773,VALID,0,VALID,23.8183,VALID,169,VALID,2.26523,
2012-08-12, 03:31:04,VALID,1001.38,VALID,0,VALID,92.5473,VALID,0,VALID,23.9159,VALID,169,VALID,2.00234,
2012-08-12, 03:32:04,VALID,1001.38,VALID,0,VALID,91.4944,VALID,0,VALID,23.9939,VALID,169,VALID,2.13008,
2012-08-12, 03:33:04,VALID,1001.39,VALID,0,VALID,90.8688,VALID,0,VALID,24.0116,VALID,169,VALID,1.65273,
2012-08-12, 03:34:04,VALID,1001.4,VALID,0,VALID,90.5636,VALID,0,VALID,24.0116,VALID,169,VALID,1.80898,
2012-08-12, 03:35:04,VALID,1001.39,VALID,0,VALID,90.4339,VALID,0,VALID,24.0525,VALID,169,VALID,1.7168,
2012-08-12, 03:36:04,VALID,1001.39,VALID,0,VALID,90.3118,VALID,0,VALID,24.072,VALID,169,VALID,1.38516,
2012-08-12, 03:37:04,VALID,1001.39,VALID,0,VALID,90.1821,VALID,0,VALID,24.0311,VALID,169,VALID,1.60078,
2012-08-12, 03:38:04,VALID,1001.4,VALID,0,VALID,90.144,VALID,0,VALID,24.0525,VALID,169,VALID,1.46328,
2012-08-12, 03:39:04,VALID,1001.44,VALID,0,VALID,90.1745,VALID,0,VALID,24.0329,VALID,169,VALID,1.5,
2012-08-12, 03:40:04,VALID,1001.43,VALID,0,VALID,90.1592,VALID,0,VALID,24.0525,VALID,169,VALID,1.04375,
2012-08-12, 03:41:04,VALID,1001.44,VALID,0,VALID,90.0066,VALID,0,VALID,24.0329,VALID,169,VALID,1.30938,
2012-08-12, 03:42:04,VALID,1001.46,VALID,0,VALID,89.8998,VALID,0,VALID,24.0311,VALID,169,VALID,1.32305,
2012-08-12, 03:43:04,VALID,1001.45,VALID,0,VALID,89.6404,VALID,0,VALID,24.0525,VALID,169,VALID,1.21914,
2012-08-12, 03:44:04,VALID,1001.45,VALID,0,VALID,89.6404,VALID,0,VALID,24.0506,VALID,169,VALID,0.991797,
2012-08-12, 03:45:04,VALID,1001.43,VALID,0,VALID,89.6557,VALID,0.104696,VALID,24.0311,VALID,169,VALID,1.16367,
2012-08-12, 03:46:04,VALID,1001.42,VALID,0,VALID,89.7396,VALID,0,VALID,24.0329,VALID,169,VALID,0.792969,